Reflectivity
-20 -20 -20 -20 -20 -20 -20 -20 -20 -12 -9 -20 -20 -20 -20 -20 -20 -1 -20 3 24 23 6 -5 -17 11 5 14 11 -7 16 17 19 17 17 13 11 -3 -3 -20 -20 3 16 22 14 19 19 -20 7 15 11 -4 -20 -20
-20 -20 -20 -20 -20 -20 -20 -20 -20 -20 -20 -20 -20 -20 -20 -20 -11 4 6 -20 21 21 11 -17 -13 -2 6 -6 20 28 26 16 25 26 20 15 8 -1 -5 -14 -18 7 -16 18 22 18 -18 -20 -5 7 5 -18 -20 -20
-20 -20 -20 -20 -20 -20 -20 -20 -20 -20 -20 -20 -20 -20 -20 -20 -20 7 8 -0 16 5 -17 12 -1 -20 -20 -20 3 29 23 6 9 11 14 29 23 -11 11 -17 7 -8 -20 17 22 -20 -20 -20 -20 -5 -1 5 -9 17
-1 -16 -20 -20 -20 -20 -20 -20 -20 -20 -20 -20 -20 -20 -20 -20 -10 2 6 -8 14 14 -0 4 -20 -20 -18 -20 -20 16 16 22 31 25 35 31 15 4 15 21 19 16 15 30 30 5 8 28 -20 -20 -15 7 -5 10
9 11 9 7 1 -13 -3 -20 -20 -20 -20 -20 -20 -20 -20 -20 -5 0 3 -18 -1 19 -2 -8 -20 -20 -20 -20 5 -12 3 27 35 28 30 13 13 8 -20 3 -15 -4 -7 -9 5 20 27 1 -0 -9 5 -1 -16 -20
11 11 9 10 11 10 8 5 -1 -20 -20 -20 -20 -20 -20 -20 2 7 -20 -20 -15 15 19 9 -20 -20 -15 -6 5 18 23 27 36 30 29 12 -17 17 31 17 -20 -20 11 26 30 16 -1 30 29 -19 -17 -20 -15 -20
-20 -20 7 9 11 8 6 7 8 4 -20 -20 -20 -20 -20 -20 7 13 -8 -5 -20 -17 -3 7 -14 -20 -20 -17 -1 8 8 33 21 31 26 10 13 24 13 2 11 -5 -20 -1 24 15 -20 6 5 -3 1 11 -20 12
-0 -0 -10 -20 -3 -2 9 7 7 6 -0 -20 -20 -20 -20 -20 -11 -6 -20 -19 5 22 13 8 -11 18 -4 14 -4 -2 29 32 25 26 5 12 -6 16 -2 -20 -20 -20 -20 -20 14 11 8 34 29 9 -20 -18 -8 22
8 8 10 6 0 -14 6 5 11 5 -2 -20 -20 -20 -20 -20 -14 -13 -20 -20 -10 25 22 -8 -18 -13 17 2 2 -1 7 13 11 7 3 14 -3 12 -3 -11 -2 -20 9 -13 -17 32 19 30 14 -6 -12 6 12 11
8 1 6 7 9 7 -4 5 7 9 -20 -20 -20 0 9 3 -20 -19 -20 11 20 -18 20 -8 -20 4 21 16 30 9 3 -3 17 -10 -6 16 -18 -20 -20 -20 -18 -19 -20 -20 10 -5 -19 -5 -19 3 -2 3 -12 1
1 7 8 7 9 9 5 -16 3 10 -20 -10 14 17 -5 -20 -20 -5 3 15 10 18 4 -1 10 22 26 13 20 30 29 21 18 12 5 13 -9 -16 -20 -20 -13 -20 -20 -20 -20 -6 -20 4 -19 -20 -18 -7 -20 -20
-5 7 7 -4 -13 10 10 5 1 10 -8 -12 -14 -20 -19 -4 6 7 0 -4 -12 -7 -7 4 22 18 -1 -10 7 6 15 14 14 17 17 -1 -5 -20 -20 -20 -20 -20 -20 -20 -13 -20 -20 -20 -20 -20 -20 -20 -20 -20
9 -0 7 7 -20 -3 12 -18 -3 -2 -20 -20 -16 9 8 -2 14 9 -3 -18 -20 -19 -20 -20 13 -14 12 -1 7 11 10 17 -1 18 -8 18 -20 -20 -18 -20 11 13 -10 -8 -20 -14 -20 -20 -20 -20 -20 -20 -20 -20
4 4 3 6 -20 -20 4 -1 -1 -20 -20 -0 12 -2 0 -18 -20 -20 -20 -20 -13 -20 -20 -19 0 -17 10 15 16 7 14 1 17 11 17 25 -6 -9 -6 21 10 7 4 18 23 5 22 8 -3 4 -18 -11 -6 -9
1 3 9 -10 8 7 11 8 4 -4 -12 3 -2 -15 -20 -20 -20 -20 -8 -10 -20 -20 -20 16 8 16 19 13 -18 -9 11 8 15 18 9 5 -11 8 7 7 -10 25 3 -13 14 14 26 30 30 21 11 -2 -20 -20
13 7 -20 -10 -20 -20 -20 -20 -2 13 6 -20 -20 -20 -20 -20 -20 2 -20 -20 -20 -20 -17 -6 2 10 -7 3 -3 -16 -0 -1 17 -1 -17 5 -8 0 22 30 27 7 -0 7 0 -7 8 22 19 19 27 20 8 -1
8 7 -17 6 5 -20 2 8 10 16 9 -9 -20 -20 -20 -20 -19 -10 -5 -20 -20 13 1 14 12 -1 9 -18 6 20 -17 14 -20 -20 -20 -20 -14 21 29 28 30 21 -19 -20 -18 -3 -20 -20 -16 -14 -1 4 3 -0
3 -12 7 -20 -4 -5 3 9 14 6 -20 -20 -20 -20 8 -18 -20 -20 2 2 6 -20 -9 -3 8 14 -7 -20 -14 -11 18 -20 -20 -20 -19 -20 -20 -19 10 18 27 22 11 -13 -18 -20 -20 -20 -20 -20 -20 -20 -20 -20
-20 -20 -20 -20 -20 19 9 16 2 -6 -20 -20 -20 -9 -19 -5 9 9 -1 -14 13 -20 13 13 19 -20 -20 -20 -2 -1 -20 -20 -20 -20 -20 -17 -11 -20 -20 -20 -18 -11 -4 -14 -20 -20 -20 -20 -20 -20 -16 -20 -17 -11
7 -20 -20 -18 6 19 18 2 -9 8 -4 -20 -20 -20 -20 -13 3 -10 14 -16 14 13 19 8 -20 -14 13 -20 -5 25 -20 -20 -20 -17 -3 -2 -20 -20 -20 -20 -20 -20 -20 -20 -20 -15 -20 -20 -19 -16 -20 -20 -7 -12
12 -20 4 17 16 20 16 2 1 5 -7 6 -20 -13 -18 19 16 -15 15 14 16 6 -12 -9 -20 -20 23 -20 31 -19 -6 -20 -20 -20 -20 -17 4 -1 5 -20 -20 -20 -20 -20 -4 -16 -2 -2 -20 -20 -20 -11 -20 -0
2 0 -0 17 24 22 22 -20 -9 -20 -2 0 -18 -1 20 17 18 -8 18 18 16 -10 -3 -4 -20 -12 -9 -20 -20 -20 -20 -8 -20 -20 -20 -15 -5 -17 -20 -20 -20 -20 -20 -6 -19 -2 -13 -20 -18 -10 -20 -20 -2 -17
-3 13 21 19 21 21 -3 -20 11 -7 13 -5 2 -6 -3 16 16 18 15 5 13 10 -20 -2 -20 -20 -14 -19 -17 -20 -20 -6 -20 -20 -16 0 -10 -20 -10 -5 -20 -20 -7 -6 -11 2 1 5 2 1 -14 -9 -2 -18
17 25 18 17 17 13 -18 -20 -20 14 16 14 11 6 -20 9 18 22 23 11 6 -20 7 12 -20 19 -12 -0 -3 -12 12 9 -19 -20 -20 -20 -20 -20 -20 -20 -11 -20 -20 -20 -19 -0 -20 -20 1 -16 -8 -2 -6 -4
22 27 20 16 14 17 -20 -20 -20 13 14 16 18 12 12 6 23 23 17 1 15 17 16 17 21 10 -18 -18 -20 -5 -19 18 -20 -20 -10 -1 -20 -12 -20 -5 -12 -1 -20 -20 -20 -20 -20 -20 1 -16 -9 -0 -14 -11
14 -6 2 -3 -7 -12 -7 -4 14 13 -9 -14 14 18 14 9 15 25 19 7 31 7 17 15 18 19 -0 7 -10 -18 -17 -20 -20 -20 -20 -20 -20 -20 -16 -13 -20 -7 -0 -13 -14 -14 -18 -2 -13 -20 -20 2 10 -6
20 13 17 17 1 8 3 18 16 16 19 18 12 18 19 15 21 12 18 4 12 4 -20 -20 -18 15 -13 -10 2 -3 -14 -20 -20 -20 -20 -20 -20 -20 -17 -6 -20 -15 -12 -20 -20 2 -18 -8 -9 2 5 2 -5 -20
3 -3 -2 5 -7 2 21 16 18 10 12 7 -3 14 15 15 14 8 8 18 21 4 10 11 16 3 -19 -16 -10 20 12 -20 -20 -20 -20 -20 -20 -20 -20 -20 -20 -18 -18 -20 -15 7 -1 5 -6 -20 -19 -18 -19 -3
12 -12 -17 -10 -20 18 11 14 11 4 3 3 9 -9 7 12 18 17 16 12 8 0 2 11 14 10 -0 -2 -10 12 25 26 8 -5 -20 -19 -20 -20 -20 -10 -18 -20 -20 -20 2 -18 -20 -18 -1 8 17 23 8 -17
4 -3 4 -20 -20 14 14 0 3 5 5 7 -9 -1 -3 -1 11 7 8 7 3 5 10 7 9 7 -0 -19 -16 -6 7 -8 -17 -13 -1 -9 -7 -20 -20 -20 -20 -20 -20 -20 -20 -20 -0 -16 -20 -18 -14 -4 2 16
10 10 1 -5 6 13 5 -3 15 5 -5 7 -5 -9 3 7 3 -0 15 16 17 4 -2 9 9 9 3 7 14 20 19 11 -8 -20 -14 -8 -20 -20 -20 -20 -20 -20 -20 -20 -20 -20 -20 -17 -20 -14 -15 -2 -3 -2
16 12 10 9 9 8 1 3 19 13 15 17 19 8 5 1 0 -2 8 7 -1 0 -4 5 7 11 6 6 3 2 -3 -1 -13 -20 -19 -12 -2 -20 -17 -20 -19 -2 -8 -18 -20 -20 -20 -20 -6 8 4 3 -6 -19
13 9 5 8 12 12 14 4 18 10 9 7 10 10 -16 -0 9 15 7 5 6 5 6 5 5 6 4 -2 2 -1 -3 -4 -20 -20 -20 -20 -20 -20 -11 -16 -20 -20 -10 5 11 -8 -8 -12 -10 -8 10 2 -9 -4
Wind_Speed
15 15 16 15 16 15 15 15 15 14 14 14 14 14 13 13 12 8 9 9 8 8 15 21 22 22 16 13 16 14 11 9 6 11 8 9 10 12 18 24 24 21 15 10 13 14 20 18 19 19 10 9 11 17
15 15 15 16 16 16 16 15 16 17 16 16 15 15 15 14 13 11 10 9 8 8 7 11 17 22 28 28 20 11 12 15 3 5 8 7 9 7 14 21 14 21 18 15 9 6 14 16 11 5 8 7 7 7
15 15 15 16 16 16 17 17 17 17 18 18 18 17 17 16 15 12 11 9 8 7 11 13 16 25 21 24 23 15 10 9 13 14 7 4 12 7 11 15 19 20 20 17 19 19 23 26 17 13 12 8 10 7
17 17 17 17 16 17 17 18 17 18 19 19 19 19 18 18 17 15 10 9 6 6 7 12 17 19 21 21 23 23 24 16 11 7 9 9 11 8 12 12 15 9 6 5 18 18 19 31 21 14 11 8 12 13
17 18 18 18 18 18 18 19 19 19 19 20 21 21 20 19 18 13 11 11 12 9 6 9 19 28 24 22 18 19 18 16 6 5 5 8 7 8 12 14 20 14 20 11 13 16 10 16 13 7 8 12 12 12
18 18 18 18 19 19 19 19 20 20 21 21 22 22 21 19 16 6 6 5 9 6 3 5 7 17 13 3 7 10 10 6 4 4 4 6 15 7 5 9 15 17 12 9 18 13 16 18 10 6 11 11 12 5
19 19 19 19 19 18 19 20 20 21 21 23 24 24 23 20 10 6 6 5 8 5 1 6 6 1 5 2 2 4 6 3 3 2 4 6 7 3 9 21 12 18 18 10 12 15 12 15 10 8 9 12 12 9
19 19 20 20 20 20 20 19 20 22 22 23 24 25 26 23 20 12 14 18 8 4 3 5 7 4 5 3 3 1 2 2 4 3 4 7 6 6 9 14 14 15 16 17 12 8 13 15 12 17 4 4 11 10
20 19 19 19 19 20 19 20 20 21 23 24 26 30 12 7 6 1 3 11 10 8 4 6 6 8 6 3 2 2 3 4 4 5 6 5 5 10 9 14 16 15 10 13 12 15 20 12 19 1 4 3 6 8
19 19 18 19 19 19 19 19 20 21 24 29 13 5 2 1 8 3 3 5 6 4 5 6 7 11 3 2 1 2 4 4 4 7 4 5 11 19 18 17 15 11 12 14 13 13 12 10 4 4 4 4 6 4
18 18 18 18 18 18 18 18 18 18 23 4 3 3 6 12 4 5 5 7 7 6 7 5 9 6 3 3 2 3 2 3 4 4 7 5 4 4 9 5 5 6 9 11 13 10 9 8 4 5 11 11 10 10
19 18 18 18 18 17 16 16 16 7 4 9 9 11 5 4 5 7 5 6 8 7 6 5 4 5 3 3 3 4 4 3 5 4 3 4 2 7 7 5 6 6 6 9 11 9 8 6 13 11 13 14 13 10
19 18 17 17 17 18 15 14 15 9 13 9 7 5 4 6 8 8 7 5 5 4 3 3 4 2 4 3 4 4 4 4 3 3 4 3 6 5 4 4 3 3 6 9 10 11 15 16 16 14 13 11 12 12
18 18 18 16 18 20 18 13 8 6 6 6 6 8 7 7 7 8 9 7 2 1 4 4 3 3 3 4 2 4 3 5 4 4 1 4 7 4 3 4 2 7 8 10 10 11 12 13 14 12 12 9 10 12
17 17 18 18 16 9 8 2 7 7 5 5 7 7 10 8 7 3 4 2 1 3 4 4 4 4 4 3 4 4 4 4 4 2 3 4 7 6 6 6 6 5 6 7 7 9 10 11 12 12 10 9 8 11
18 17 13 5 3 8 10 9 8 6 5 7 9 10 5 6 4 1 3 6 5 4 3 4 4 3 5 3 6 6 4 4 2 4 2 5 7 6 6 5 5 5 8 8 7 8 8 8 9 10 8 7 7 8
14 8 3 9 9 11 14 8 4 7 8 9 6 5 10 8 5 4 7 8 8 6 7 4 5 7 3 3 4 4 4 3 3 3 2 3 6 6 6 5 4 5 7 8 8 8 9 8 8 9 10 8 8 8
11 10 4 5 11 9 10 7 5 7 12 10 11 7 5 7 8 8 8 8 9 9 8 8 3 4 4 6 8 4 5 2 3 2 2 2 5 6 7 7 6 7 8 7 7 6 5 6 7 6 7 7 8 7
11 12 16 16 10 4 5 5 8 7 7 6 8 9 10 8 8 8 8 9 10 8 6 3 6 6 7 6 2 4 5 5 4 3 3 2 4 5 6 8 7 8 7 7 7 5 4 6 6 5 4 4 5 5
18 18 18 18 13 5 6 6 8 8 7 6 8 10 11 9 8 8 8 8 9 10 9 6 6 5 2 4 3 4 5 8 7 6 5 4 3 5 7 6 5 7 6 6 6 6 6 5 5 5 4 5 6 5
14 15 14 11 11 11 7 6 9 6 7 11 10 11 9 8 10 10 9 9 9 10 9 7 5 3 2 1 2 6 8 8 7 6 5 5 5 5 5 5 5 4 5 4 4 4 4 4 5 5 4 4 4 5
12 16 10 11 5 6 8 8 8 9 12 10 13 9 8 8 8 8 7 9 10 8 7 7 6 4 5 5 5 8 9 7 8 9 8 5 5 5 4 4 4 4 4 3 3 3 4 5 5 4 4 4 5 5
15 12 5 5 6 7 7 8 15 15 14 15 13 15 8 6 6 6 6 8 7 6 8 7 8 7 7 8 8 10 11 10 7 8 7 5 5 5 5 5 5 5 4 4 3 4 4 7 6 5 5 4 4 4
13 7 9 7 8 6 5 8 10 12 10 14 15 19 16 8 7 5 5 9 7 9 8 10 6 5 5 7 7 6 6 7 9 7 5 7 6 5 5 5 4 3 4 4 3 4 5 5 7 6 5 5 5 5
6 5 5 7 5 6 6 6 12 13 5 11 18 15 11 6 5 5 3 4 5 6 6 6 5 5 6 5 4 5 3 7 8 6 3 6 6 6 6 4 4 3 5 5 4 5 5 5 4 6 6 5 6 7
4 4 5 5 4 7 6 7 7 11 10 5 5 5 6 7 4 5 3 8 6 5 4 1 4 4 4 4 6 5 3 7 10 7 5 4 7 7 7 7 6 3 3 4 6 5 5 5 5 7 5 6 6 6
3 3 0 2 4 6 5 3 6 4 4 4 4 2 3 4 2 4 3 7 5 7 7 5 3 4 6 6 5 4 3 6 9 7 7 8 8 7 4 5 7 2 3 5 4 4 6 5 5 5 5 4 4 7
4 5 5 6 6 4 4 3 4 5 5 6 8 4 5 7 6 4 5 5 4 6 7 8 8 8 8 7 5 4 7 9 11 10 9 9 8 7 7 6 5 7 5 5 4 2 2 4 6 6 6 6 5 5
3 6 5 3 4 3 3 5 5 5 6 5 6 5 4 5 8 5 5 6 6 6 7 7 7 7 8 8 9 8 5 3 10 13 11 7 6 5 5 5 5 4 3 3 5 3 2 2 2 1 2 2 4 5
4 5 4 3 2 3 4 4 4 5 5 3 4 4 4 3 7 9 7 7 8 8 8 8 7 7 8 8 8 10 9 9 9 4 7 8 6 5 4 4 4 3 3 2 2 2 1 1 1 1 1 2 2 2
5 4 4 4 3 4 5 4 3 3 4 5 7 8 6 4 4 9 10 9 7 8 8 9 10 10 9 7 6 7 7 8 10 12 10 7 7 6 4 4 3 2 2 1 1 0 1 2 1 1 0 2 3 3
3 4 4 3 3 4 3 4 2 2 3 2 2 6 6 4 5 5 9 8 9 10 11 9 8 9 8 8 8 8 11 7 7 8 10 7 5 4 4 3 3 2 2 2 2 2 3 3 1 1 1 3 5 5
2 3 4 4 3 4 4 4 2 3 4 3 5 6 7 4 6 4 4 7 8 7 7 7 7 7 8 8 8 7 9 7 9 10 10 9 8 7 5 4 4 4 5 4 5 4 3 3 3 5 6 7 8 8
Wind_Direction
302 309 309 307 307 308 310 312 314 314 313 310 308 305 303 299 294 285 275 284 255 259 260 254 261 266 264 254 261 271 290 237 222 228 232 232 249 248 255 255 252 257 259 243 221 237 236 251 251 229 243 283 316 314
297 300 303 307 308 307 306 306 304 303 304 305 304 302 299 296 293 285 275 264 260 252 264 275 263 258 252 258 265 256 256 256 242 264 231 227 232 240 249 262 255 256 252 255 216 225 237 254 244 287 230 249 269 319
289 294 297 299 301 304 305 306 307 305 303 301 300 299 299 296 292 277 276 282 279 267 266 248 252 253 242 243 245 255 249 229 236 228 243 259 248 238 246 256 263 259 265 264 262 244 257 273 237 254 252 255 273 223
286 288 289 292 295 299 301 303 304 305 305 302 298 296 296 295 293 285 274 270 248 269 270 269 265 265 244 237 227 227 243 254 267 252 234 230 243 254 266 289 279 278 345 303 296 260 231 250 238 240 252 276 292 283
291 288 288 288 290 293 295 298 300 301 302 304 301 296 293 294 295 289 266 254 227 220 271 297 310 279 256 252 237 232 228 233 229 206 223 237 237 252 260 266 255 243 253 251 259 286 267 292 284 311 269 247 246 243
299 296 293 290 291 292 292 292 294 298 301 301 300 297 293 292 296 293 305 267 220 191 285 287 288 282 259 261 298 226 228 236 195 200 231 252 259 270 271 252 262 250 260 300 287 301 306 291 287 276 238 221 225 121
303 304 303 297 295 295 295 295 293 293 297 299 299 296 291 288 271 235 239 350 137 124 240 273 268 99 31 62 265 243 223 186 183 203 220 255 249 247 244 254 286 277 290 271 229 287 311 295 275 291 261 216 177 116
305 301 299 300 302 300 297 295 295 297 298 297 296 293 291 286 274 247 236 239 170 225 203 258 263 229 180 207 241 205 187 192 189 224 231 226 238 216 255 264 265 269 272 283 206 227 254 262 282 272 277 150 128 146
306 302 301 302 296 298 301 301 300 300 301 297 296 294 281 225 219 91 357 172 189 230 243 226 262 294 178 223 191 198 204 221 186 217 219 210 217 226 248 262 272 279 316 322 310 226 246 222 264 239 258 179 169 181
305 304 303 303 304 301 296 304 306 305 306 296 288 222 222 269 336 256 144 203 206 213 228 252 260 261 289 285 232 243 195 230 230 214 177 220 241 248 251 260 267 297 298 302 295 289 278 280 255 222 197 170 128 126
303 302 302 303 302 302 301 299 307 312 293 276 312 327 333 346 273 226 222 209 194 219 201 231 232 251 194 268 314 264 289 251 248 167 204 220 241 299 324 313 16 344 330 334 323 324 345 306 222 109 86 90 97 90
301 301 302 303 306 303 302 297 305 303 284 312 308 285 274 251 219 227 220 219 214 237 165 218 215 221 185 181 246 233 257 241 267 150 248 255 58 20 38 0 340 326 324 324 327 341 1 62 87 90 79 80 84 83
302 301 297 300 302 305 302 295 300 288 289 260 182 231 220 215 232 225 210 223 237 160 208 219 243 194 189 204 248 263 253 263 271 238 245 46 101 70 31 340 350 27 34 45 50 39 51 57 66 82 87 78 87 82
296 296 297 297 294 301 288 281 277 288 271 242 216 229 233 206 228 213 237 247 222 145 224 243 248 230 195 205 258 260 288 279 261 239 311 77 83 72 15 42 80 72 61 63 54 58 62 73 72 72 70 69 90 95
295 297 297 290 286 309 339 281 248 278 271 257 238 237 225 232 242 275 303 289 293 262 254 256 266 226 201 212 221 256 245 255 252 337 67 97 98 89 65 81 88 87 80 71 64 73 73 74 74 69 63 71 81 103
297 299 288 284 262 291 302 282 261 248 239 233 239 247 237 257 281 258 247 250 243 206 250 248 260 222 234 221 208 214 236 249 51 63 83 104 115 103 95 70 61 69 96 101 90 86 86 86 94 97 88 82 86 94
301 274 214 263 287 290 278 266 247 227 226 234 230 228 249 258 234 243 232 243 245 213 215 241 227 220 201 231 236 216 240 28 86 97 95 48 137 134 118 113 103 90 94 98 105 102 101 111 115 107 103 104 101 98
277 282 285 326 309 295 260 204 245 246 244 240 255 246 239 241 251 249 250 246 236 228 220 226 286 249 226 246 265 14 92 95 95 117 98 87 99 126 147 139 131 117 102 105 113 124 137 115 101 97 104 110 111 109
296 309 309 302 300 296 267 220 221 267 248 256 261 242 243 243 232 244 246 244 243 229 211 231 230 232 242 252 267 102 135 152 151 137 114 93 107 109 101 101 106 116 133 141 143 134 110 102 110 112 120 123 113 115
286 279 272 270 265 249 240 238 227 236 266 281 265 251 257 252 235 236 238 239 236 229 221 220 232 266 325 309 15 152 149 117 138 137 134 122 118 122 134 142 133 138 129 104 90 92 101 102 108 120 127 127 129 125
269 271 272 265 243 229 267 260 260 254 256 253 266 269 272 251 239 233 236 224 220 223 217 219 232 240 84 71 183 119 125 162 160 157 148 150 158 154 146 128 133 129 122 131 136 118 145 132 121 116 124 95 92 116
258 268 275 262 244 229 231 226 250 266 275 279 279 280 282 257 243 234 228 228 227 221 216 226 226 202 171 192 198 137 164 162 95 111 123 131 141 132 130 132 125 117 119 127 133 136 111 110 118 123 111 114 109 111
255 251 244 246 246 229 252 233 245 243 249 259 273 279 263 285 258 215 230 221 224 223 212 225 222 199 184 183 167 152 166 167 137 133 144 150 137 130 129 122 123 128 131 137 130 126 115 119 119 122 120 133 120 112
236 212 194 222 216 242 243 247 253 259 259 244 249 257 258 267 265 227 238 216 202 200 205 202 211 199 148 184 157 171 164 147 125 128 133 125 126 132 127 118 112 121 141 130 126 117 126 121 131 135 135 139 140 142
257 168 208 191 227 219 235 254 262 265 268 283 261 253 252 201 249 226 230 205 195 183 183 183 191 203 182 162 135 100 21 138 125 122 141 134 128 120 123 128 122 78 121 125 122 127 129 128 130 141 150 157 150 158
218 182 228 220 223 234 235 249 250 252 252 235 260 283 231 228 242 301 47 355 353 54 48 103 156 133 95 119 120 104 41 118 108 94 59 101 123 129 133 134 125 83 40 124 130 141 147 148 153 156 158 169 169 162
231 24 252 325 284 289 291 313 316 283 260 265 324 254 298 216 179 63 27 7 360 15 21 16 38 122 107 90 80 64 39 94 96 96 86 71 61 51 76 118 109 73 66 84 111 136 153 163 173 179 171 176 190 196
20 15 341 329 337 300 289 344 346 22 3 339 318 330 30 27 28 18 7 6 8 39 35 37 46 72 79 81 78 81 90 94 91 93 86 75 66 65 69 72 68 60 60 53 48 33 119 161 185 187 185 188 188 183
18 358 324 359 326 307 45 26 29 31 347 333 346 24 53 35 359 11 31 36 38 55 60 58 58 62 70 62 54 43 41 108 141 142 126 120 109 63 49 57 65 69 63 46 81 71 50 35 64 128 152 193 193 183
357 339 324 348 296 333 75 13 350 323 326 326 100 105 73 49 16 2 7 42 50 52 49 48 47 61 70 73 69 54 30 31 32 54 130 111 100 97 71 65 62 58 55 56 27 359 7 30 140 183 215 225 194 182
327 336 342 321 309 43 20 325 313 48 30 62 92 112 119 126 70 21 6 31 57 63 55 48 44 39 45 51 83 84 70 37 45 59 70 79 80 79 81 76 58 49 40 33 33 212 343 357 341 18 285 245 229 215
325 5 342 289 305 2 2 342 351 83 65 52 109 104 111 98 78 40 5 15 41 46 46 49 55 58 53 55 57 64 66 63 46 37 44 61 70 64 77 71 62 34 18 83 126 161 186 212 300 33 42 122 85 58
323 19 9 334 319 337 15 311 147 91 68 54 30 67 64 49 61 66 69 37 40 42 46 50 53 55 56 63 80 86 82 80 72 68 67 61 36 21 44 25 10 15 22 40 63 87 111 125 100 84 77 81 72 58